• în România
  • Lista ţărilor
  • Pe 7 zile
  • Temperatura apei
  • Hartă satelitară
  • Meteo pe hartă
  • Widget-uri
  • user-avatar
    Intrare

    Meteo pe oră la Elbasan

    Astăzi, 18 Ianuarie, Miercuri

    Timp Temperatura Precipitaţii Vânt Presiune Umiditate
    00:00 +2°C° 0 mm 3 m/s 733 mmHg 90%
    01:00 +2°C° 0 mm 3 m/s 732 mmHg 91%
    02:00 +2°C° 0 mm 3 m/s 732 mmHg 90%
    03:00 +2°C° 0 mm 3 m/s 732 mmHg 90%
    04:00 +1°C° 0 mm 4 m/s 732 mmHg 89%
    05:00 +1°C° 0,1 mm 4 m/s 733 mmHg 89%
    06:00 +1°C° 0,1 mm 4 m/s 733 mmHg 88%
    07:00 +3°C° 0 mm 4 m/s 733 mmHg 88%
    08:00 +3°C° 0,4 mm 4 m/s 734 mmHg 87%
    09:00 +4°C° 0,4 mm 4 m/s 734 mmHg 86%
    10:00 +4°C° 0,4 mm 4 m/s 734 mmHg 85%
    11:00 +5°C° 0,1 mm 4 m/s 734 mmHg 84%
    12:00 +5°C° 0,1 mm 4 m/s 734 mmHg 83%
    13:00 +6°C° 0 mm 4 m/s 734 mmHg 84%
    14:00 +5°C° 0,4 mm 4 m/s 734 mmHg 85%
    15:00 +5°C° 0,4 mm 5 m/s 734 mmHg 86%
    16:00 +3°C° 0,4 mm 5 m/s 733 mmHg 87%
    17:00 +3°C° 0,3 mm 5 m/s 733 mmHg 86%
    18:00 +3°C° 0,3 mm 5 m/s 734 mmHg 86%
    19:00 +3°C° 0,3 mm 6 m/s 734 mmHg 85%
    20:00 +2°C° 0,7 mm 5 m/s 734 mmHg 87%
    21:00 +3°C° 0,7 mm 3 m/s 735 mmHg 89%
    22:00 +4°C° 0,7 mm 2 m/s 735 mmHg 91%
    23:00 +3°C° 0,6 mm 3 m/s 736 mmHg 91%

    Mâine, 19 Ianuarie, Joi

    Timp Temperatura Precipitaţii Vânt Presiune Umiditate
    00:00 +3°C° 0,6 mm 3 m/s 736 mmHg 91%
    01:00 +3°C° 0,6 mm 3 m/s 737 mmHg 92%
    02:00 +2°C° 0,2 mm 3 m/s 737 mmHg 91%
    03:00 +2°C° 0,2 mm 3 m/s 737 mmHg 91%
    04:00 +2°C° 0,2 mm 3 m/s 737 mmHg 91%
    05:00 +2°C° 0 mm 3 m/s 738 mmHg 90%
    06:00 +2°C° 0 mm 3 m/s 738 mmHg 90%
    07:00 +1°C° 0 mm 3 m/s 739 mmHg 90%
    08:00 +2°C° 0 mm 3 m/s 739 mmHg 88%
    09:00 +3°C° 0 mm 3 m/s 740 mmHg 86%
    10:00 +4°C° 0 mm 3 m/s 740 mmHg 85%
    11:00 +5°C° 0 mm 3 m/s 740 mmHg 84%
    12:00 +5°C° 0 mm 3 m/s 740 mmHg 83%
    13:00 +7°C° 0 mm 3 m/s 740 mmHg 82%
    14:00 +5°C° 0 mm 3 m/s 740 mmHg 83%
    15:00 +5°C° 0 mm 3 m/s 741 mmHg 84%
    16:00 +5°C° 0 mm 2 m/s 741 mmHg 86%
    17:00 +3°C° 0 mm 3 m/s 741 mmHg 87%
    18:00 +2°C° 0 mm 3 m/s 741 mmHg 88%
    19:00 +1°C° 0 mm 3 m/s 742 mmHg 89%
    20:00 0°C° 0 mm 3 m/s 742 mmHg 89%
    21:00 0°C° 0 mm 3 m/s 743 mmHg 89%
    22:00 0°C° 0 mm 3 m/s 743 mmHg 89%
    23:00 0°C° 0 mm 3 m/s 743 mmHg 89%

    Poimâine, 20 Ianuarie, Vineri

    Timp Temperatura Precipitaţii Vânt Presiune Umiditate
    00:00 -1°C° 0 mm 3 m/s 743 mmHg 88%
    01:00 -1°C° 0 mm 3 m/s 744 mmHg 88%
    02:00 -1°C° 0 mm 3 m/s 744 mmHg 88%
    03:00 -1°C° 0 mm 3 m/s 744 mmHg 88%
    04:00 -1°C° 0 mm 3 m/s 744 mmHg 88%
    05:00 -1°C° 0 mm 3 m/s 744 mmHg 88%
    06:00 -1°C° 0 mm 3 m/s 744 mmHg 87%
    07:00 -1°C° 0 mm 3 m/s 744 mmHg 87%
    08:00 0°C° 0 mm 3 m/s 745 mmHg 84%
    09:00 +3°C° 0 mm 2 m/s 745 mmHg 82%
    10:00 +5°C° 0 mm 2 m/s 745 mmHg 79%
    11:00 +5°C° 0 mm 2 m/s 745 mmHg 78%
    12:00 +6°C° 0 mm 2 m/s 745 mmHg 76%
    13:00 +7°C° 0 mm 2 m/s 744 mmHg 75%
    14:00 +6°C° 0 mm 2 m/s 744 mmHg 78%
    15:00 +6°C° 0 mm 2 m/s 744 mmHg 81%
    16:00 +5°C° 0 mm 2 m/s 744 mmHg 84%
    17:00 +4°C° 0 mm 2 m/s 744 mmHg 85%
    18:00 +2°C° 0 mm 2 m/s 745 mmHg 87%
    19:00 +1°C° 0 mm 2 m/s 745 mmHg 88%
    20:00 +1°C° 0 mm 2 m/s 745 mmHg 88%
    21:00 -1°C° 0 mm 2 m/s 745 mmHg 88%
    22:00 -1°C° 0 mm 2 m/s 745 mmHg 88%
    23:00 -1°C° 0 mm 2 m/s 745 mmHg 87%

    21 Ianuarie, Sâmbătă

    Timp Temperatura Precipitaţii Vânt Presiune Umiditate
    00:00 -2°C° 0 mm 2 m/s 745 mmHg 87%
    01:00 -2°C° 0 mm 2 m/s 745 mmHg 87%
    02:00 -2°C° 0 mm 2 m/s 744 mmHg 87%
    03:00 -2°C° 0 mm 2 m/s 744 mmHg 86%
    04:00 -2°C° 0 mm 2 m/s 744 mmHg 86%
    05:00 -2°C° 0 mm 2 m/s 744 mmHg 86%
    06:00 -2°C° 0 mm 2 m/s 744 mmHg 85%
    07:00 -2°C° 0 mm 2 m/s 744 mmHg 84%
    08:00 +1°C° 0 mm 2 m/s 744 mmHg 81%
    09:00 +4°C° 0 mm 2 m/s 744 mmHg 77%
    10:00 +6°C° 0 mm 2 m/s 744 mmHg 74%
    11:00 +8°C° 0 mm 1 m/s 744 mmHg 73%
    12:00 +8°C° 0 mm 1 m/s 744 mmHg 72%
    13:00 +9°C° 0 mm 1 m/s 743 mmHg 71%
    14:00 +8°C° 0 mm 1 m/s 743 mmHg 76%
    15:00 +7°C° 0 mm 1 m/s 743 mmHg 80%
    16:00 +6°C° 0 mm 1 m/s 743 mmHg 84%
    17:00 +5°C° 0 mm 1 m/s 743 mmHg 86%
    18:00 +3°C° 0 mm 2 m/s 743 mmHg 87%
    19:00 +2°C° 0 mm 2 m/s 743 mmHg 89%
    20:00 +1°C° 0 mm 2 m/s 743 mmHg 88%
    21:00 +1°C° 0 mm 2 m/s 743 mmHg 87%
    22:00 +1°C° 0 mm 2 m/s 744 mmHg 86%
    23:00 -1°C° 0 mm 2 m/s 744 mmHg 85%

    22 Ianuarie, Duminică

    Timp Temperatura Precipitaţii Vânt Presiune Umiditate
    00:00 -1°C° 0 mm 2 m/s 744 mmHg 84%
    01:00 -1°C° 0 mm 2 m/s 744 mmHg 83%
    02:00 -1°C° 0 mm 2 m/s 744 mmHg 83%
    03:00 -1°C° 0 mm 2 m/s 744 mmHg 82%
    04:00 -1°C° 0 mm 2 m/s 744 mmHg 82%
    05:00 -1°C° 0 mm 2 m/s 744 mmHg 81%
    06:00 -1°C° 0 mm 2 m/s 744 mmHg 81%
    07:00 -1°C° 0 mm 2 m/s 744 mmHg 80%
    08:00 +2°C° 0 mm 2 m/s 744 mmHg 77%
    09:00 +4°C° 0 mm 2 m/s 745 mmHg 74%
    10:00 +6°C° 0 mm 2 m/s 745 mmHg 72%
    11:00 +6°C° 0 mm 2 m/s 745 mmHg 71%
    12:00 +7°C° 0 mm 2 m/s 745 mmHg 71%
    13:00 +8°C° 0 mm 2 m/s 744 mmHg 71%
    14:00 +7°C° 0 mm 2 m/s 744 mmHg 74%
    15:00 +6°C° 0 mm 2 m/s 744 mmHg 78%
    16:00 +5°C° 0 mm 2 m/s 744 mmHg 81%
    17:00 +4°C° 0 mm 2 m/s 744 mmHg 83%
    18:00 +2°C° 0 mm 3 m/s 744 mmHg 84%
    19:00 +1°C° 0 mm 3 m/s 745 mmHg 85%
    20:00 +1°C° 0 mm 3 m/s 745 mmHg 85%
    21:00 +1°C° 0 mm 3 m/s 745 mmHg 85%
    22:00 +1°C° 0 mm 3 m/s 745 mmHg 84%
    23:00 0°C° 0 mm 3 m/s 745 mmHg 84%

    23 Ianuarie, Luni

    Timp Temperatura Precipitaţii Vânt Presiune Umiditate
    00:00 0°C° 0 mm 3 m/s 745 mmHg 84%
    01:00 0°C° 0 mm 3 m/s 745 mmHg 83%
    02:00 0°C° 0 mm 3 m/s 745 mmHg 83%
    03:00 0°C° 0 mm 3 m/s 744 mmHg 82%
    04:00 0°C° 0 mm 3 m/s 744 mmHg 81%
    05:00 0°C° 0 mm 3 m/s 744 mmHg 81%
    06:00 0°C° 0 mm 3 m/s 744 mmHg 80%
    07:00 0°C° 0 mm 3 m/s 744 mmHg 80%
    08:00 +1°C° 0 mm 3 m/s 744 mmHg 78%
    09:00 +3°C° 0 mm 3 m/s 744 mmHg 76%
    10:00 +4°C° 0 mm 3 m/s 744 mmHg 73%
    11:00 +5°C° 0 mm 3 m/s 743 mmHg 74%
    12:00 +7°C° 0 mm 3 m/s 743 mmHg 75%
    13:00 +8°C° 0 mm 2 m/s 742 mmHg 75%
    14:00 +7°C° 0 mm 2 m/s 742 mmHg 78%
    15:00 +6°C° 0 mm 2 m/s 742 mmHg 81%
    16:00 +6°C° 0 mm 2 m/s 741 mmHg 84%
    17:00 +5°C° 0 mm 2 m/s 741 mmHg 85%
    18:00 +4°C° 0 mm 2 m/s 741 mmHg 86%
    19:00 +4°C° 0 mm 2 m/s 741 mmHg 87%
    20:00 +4°C° 0 mm 2 m/s 740 mmHg 87%
    21:00 +3°C° 0 mm 3 m/s 740 mmHg 87%
    22:00 +3°C° 0 mm 3 m/s 740 mmHg 86%
    23:00 +3°C° 0,2 mm 3 m/s 739 mmHg 87%
    Arată mai mult